Notices

What's New in latest Release from April 7th, 2021:

- Updated Glossary, including Speed of Maximum Gust, and Total Hourly Precipitation

- Updated national and regional climate services offices contacts and prices information

- Addition of station inventory lists for 1981-2010, 1971-2000, and 1961-1990 Normals.

If you haven't already, please take our survey and provide feedback about our website: https://eccc.sondage-survey.ca/f/LanguageSelection.aspx?s=442ca660-fcf1-47c0-95a9-59707d6fd709

Hourly Data Report for April 21, 2017

MIRAMICHI RCS
NEW BRUNSWICK

47°00'34.000" N
65°27'54.000" W
33.00 m
8100989
71744
ACQ

Download Data

Hourly Data (April 2017)
Hourly Data Report for April 21, 2017
TIME
LST
Temp Definition
°C
Dew Point Definition
°C
Rel Hum Definition
%
Precip. Amount Definition
mm

Wind Dir Definition
10's deg

Wind Spd Definition
km/h
Visibility Definition
km
Stn Press Definition
kPa
Hmdx Definition


Wind Chill Definition


Weather Definition


00:00 0.7 0.5 98 0.0 5 7   102.09     LegendNANA
01:00 0.8 0.6 98 0.0 4 2   102.13     LegendNANA
02:00 0.9 0.6 98 0.0 1 2   102.14     LegendNANA
03:00 0.7 0.4 98 0.0 6 7   102.16     LegendNANA
04:00 0.2 -0.6 95 0.0 7 12   102.17     LegendNANA
05:00 -0.2 -0.7 97 0.0 5 13   102.20   -4 LegendNANA
06:00 -0.2 -1.4 92 0.0 5 7   102.21   -3 LegendNANA
07:00 0.2 -1.0 92 0.0 5 6   102.24     LegendNANA
08:00 1.0 -1.0 87 0.0 5 8   102.26     LegendNANA
09:00 1.4 -1.1 83 0.0 6 11   102.24     LegendNANA
10:00 1.9 -1.2 80 0.0 7 15   102.22     LegendNANA
11:00 3.1 -1.8 70 0.0 7 16   102.18     LegendNANA
12:00 3.9 -1.4 68 0.0 6 16   102.13     LegendNANA
13:00 3.0 -1.4 73 0.0 8 21   102.13     LegendNANA
14:00 2.9 -1.5 73 0.0 7 16   102.10     LegendNANA
15:00 2.2 -1.6 76 0.0 5 17   102.11     LegendNANA
16:00 2.2 -1.0 80 0.0 6 16   102.07     LegendNANA
17:00 1.8 -1.1 81 0.0 5 20   102.03     LegendNANA
18:00 1.3 -1.5 81 0.0 6 18   102.02     LegendNANA
19:00 0.4 -1.9 85 0.0 6 16   101.98     LegendNANA
20:00 0.1 -1.9 86 0.0 6 13   102.00     LegendNANA
21:00 -0.4 -1.8 90 0.0 7 18   101.95   -5 LegendNANA
22:00 -0.6 -1.9 91 0.0 6 4   102.00   -2 LegendNANA
23:00 -0.5 -1.8 91 0.0 2 6   101.99   -3 LegendNANA

Notes on Data Quality.

Legend

  • E = Estimated
  • M = Missing
  • NA = Not Available*
  • [empty] = Indicates an unobserved value
Date modified: